View from above orbital plane
|
View from above satellite
|
Ground track
|
The orbit data is extracted from the following two-line orbital elements,
1 33053U 08029A 22176.48481734 .00001199 00000-0 50747-4 0 9997
2 33053 25.5824 112.4055 0011714 273.4099 86.5097 15.12211604774914
Epoch (UTC): | 25 June 2022 11:38:08 |
Eccentricity: | 0.0011714 |
inclination: | 25.5824° |
perigee height: | 521 km |
apogee height: | 537 km |
right ascension of ascending node: | 112.4055° |
argument of perigee: | 273.4099° |
revolutions per day: | 15.12211604 |
mean anomaly at epoch: | 86.5097° |
orbit number at epoch: | 77491 |
The dashed part of the orbit path shows where the satellite is in the earth's shadow,
|
|